| time (UTC) | temp F | wind direction | speed knots | gust knots | rain 1hr in | rain 24hr in | rain mn in | humidity % | barometer mb |
| 20260903101228 | 65 | 285 | 1.7 | 6.1 | 0.00 | 0.00 | 0.00 | 5 | 1017.1 |
| 20260903100228 | 65 | 267 | 1.7 | 4.3 | 0.00 | 0.00 | 0.00 | 5 | 1016.9 |
| 20260903095227 | 66 | 291 | 2.6 | 3.5 | 0.00 | 0.00 | 0.00 | 5 | 1016.8 |
| 20260903094227 | 66 | 261 | 1.7 | 2.6 | 0.00 | 0.00 | 0.00 | 5 | 1016.6 |
| 20260903093227 | 67 | 226 | 1.7 | 5.2 | 0.00 | 0.00 | 0.00 | 5 | 1016.0 |
| 20260903092227 | 67 | 226 | 3.5 | 7.0 | 0.00 | 0.00 | 0.00 | 5 | 1015.7 |
| 20260903091227 | 68 | 257 | 2.6 | 7.0 | 0.00 | 0.00 | 0.00 | 5 | 1015.6 |
| 20260903090227 | 68 | 274 | 1.7 | 2.6 | 0.00 | 0.00 | 0.00 | 4 | 1015.6 |
| 20260903085227 | 68 | 259 | 2.6 | 3.5 | 0.00 | 0.00 | 0.00 | 4 | 1015.3 |
| 20260903084438 | 68 | 285 | 2.6 | 6.1 | 0.00 | 0.00 | 0.00 | 4 | 1015.1 |
| 20260903083438 | 69 | 225 | 4.3 | 6.1 | 0.00 | 0.00 | 0.00 | 4 | 1014.9 |
| 20260903082438 | 69 | 257 | 3.5 | 9.6 | 0.00 | 0.00 | 0.00 | 4 | 1014.7 |
| 20260903081437 | 70 | 249 | 3.5 | 8.7 | 0.00 | 0.00 | 0.00 | 4 | 1014.5 |
| 20260903080436 | 70 | 237 | 1.7 | 8.7 | 0.00 | 0.00 | 0.00 | 4 | 1014.3 |
| 20260903075435 | 68 | 285 | 1.7 | 2.6 | 0.00 | 0.00 | 0.00 | 4 | 1014.2 |
| 20260903074435 | 69 | 305 | 0.9 | 2.6 | 0.00 | 0.00 | 0.00 | 4 | 1014.2 |
| 20260903073435 | 71 | 305 | 0.9 | 3.5 | 0.00 | 0.00 | 0.00 | 4 | 1013.9 |
| 20260903072435 | 71 | 0 | 0.0 | 4.3 | 0.00 | 0.00 | 0.00 | 4 | 1013.8 |
| 20260903071435 | 72 | 0 | 0.0 | 3.5 | 0.00 | 0.00 | 0.00 | 4 | 1013.6 |
| 20260903070435 | 72 | 0 | 5.2 | 5.2 | 0.00 | 0.00 | 0.00 | 4 | 1013.3 |
| 20260903065435 | 74 | 235 | 0.9 | 3.5 | 0.00 | 0.00 | 0.00 | 4 | 1013.1 |
| 20260903064435 | 75 | 242 | 2.6 | 7.8 | 0.00 | 0.00 | 0.00 | 3 | 1012.8 |
| 20260903063435 | 75 | 262 | 0.9 | 8.7 | 0.00 | 0.00 | 0.00 | 3 | 1012.5 |
| 20260903062435 | 76 | 257 | 4.3 | 9.6 | 0.00 | 0.00 | 0.00 | 3 | 1012.5 |
| 20260903061435 | 76 | 311 | 1.7 | 10.4 | 0.00 | 0.00 | 0.00 | 3 | 1012.3 |
| 20260903060435 | 76 | 268 | 2.6 | 13.0 | 0.00 | 0.00 | 0.00 | 3 | 1012.2 |
| 20260903055435 | 76 | 270 | 0.9 | 12.2 | 0.00 | 0.00 | 0.00 | 3 | 1011.9 |
| 20260903054435 | 77 | 129 | 4.3 | 7.8 | 0.00 | 0.00 | 0.00 | 3 | 1011.9 |
| 20260903053435 | 77 | 296 | 1.7 | 8.7 | 0.00 | 0.00 | 0.00 | 3 | 1011.8 |
| 20260903052435 | 78 | 274 | 1.7 | 8.7 | 0.00 | 0.00 | 0.00 | 3 | 1011.8 |
| 20260903051435 | 78 | 255 | 4.3 | 11.3 | 0.00 | 0.00 | 0.00 | 3 | 1011.7 |
| 20260903050439 | 78 | 175 | 4.3 | 9.6 | 0.00 | 0.00 | 0.00 | 3 | 1011.6 |
| 20260903045439 | 78 | 228 | 8.7 | 12.2 | 0.00 | 0.00 | 0.00 | 3 | 1011.4 |
| 20260903044439 | 78 | 222 | 8.7 | 10.4 | 0.00 | 0.00 | 0.00 | 3 | 1011.3 |
| 20260903043442 | 79 | 267 | 3.5 | 10.4 | 0.00 | 0.00 | 0.00 | 3 | 1010.9 |
| 20260903042439 | 79 | 274 | 3.5 | 12.2 | 0.00 | 0.00 | 0.00 | 3 | 1010.8 |
| 20260903041447 | 79 | 220 | 6.1 | 11.3 | 0.00 | 0.00 | 0.00 | 3 | 1010.9 |
| 20260903040437 | 79 | 245 | 2.6 | 7.0 | 0.00 | 0.00 | 0.00 | 3 | 1010.6 |
| 20260903035434 | 79 | 228 | 8.7 | 13.0 | 0.00 | 0.00 | 0.00 | 3 | 1010.5 |
| 20260903034437 | 79 | 218 | 4.3 | 8.7 | 0.00 | 0.00 | 0.00 | 3 | 1010.5 |
| 20260903032434 | 80 | 256 | 7.8 | 13.0 | 0.00 | 0.00 | 0.00 | 3 | 1010.4 |
| 20260903031437 | 79 | 233 | 2.6 | 11.3 | 0.00 | 0.00 | 0.00 | 3 | 1010.3 |
| 20260903030438 | 79 | 252 | 7.8 | 12.2 | 0.00 | 0.00 | 0.00 | 3 | 1010.2 |
| 20260903025434 | 79 | 251 | 3.5 | 13.9 | 0.00 | 0.00 | 0.00 | 3 | 1010.2 |
| 20260903024437 | 79 | 212 | 2.6 | 13.0 | 0.00 | 0.00 | 0.00 | 3 | 1010.3 |
| 20260903021435 | 79 | 247 | 7.8 | 10.4 | 0.00 | 0.00 | 0.00 | 3 | 1010.3 |
| 20260903020438 | 79 | 190 | 7.0 | 13.0 | 0.00 | 0.00 | 0.00 | 3 | 1010.5 |
| 20260903015435 | 78 | 198 | 6.1 | 13.9 | 0.00 | 0.00 | 0.00 | 3 | 1010.3 |
| 20260903014435 | 78 | 185 | 5.2 | 11.3 | 0.00 | 0.00 | 0.00 | 3 | 1010.5 |
| 20260903013433 | 78 | 202 | 7.0 | 13.0 | 0.00 | 0.00 | 0.00 | 3 | 1010.4 |
| 20260903012437 | 79 | 252 | 4.3 | 12.2 | 0.00 | 0.00 | 0.00 | 3 | 1010.3 |
| 20260903011433 | 79 | 210 | 3.5 | 12.2 | 0.00 | 0.00 | 0.00 | 3 | 1010.3 |
| 20260903010437 | 79 | 260 | 7.0 | 13.9 | 0.00 | 0.00 | 0.00 | 3 | 1010.1 |
| 20260903005434 | 79 | 216 | 5.2 | 13.0 | 0.00 | 0.00 | 0.00 | 3 | 1010.2 |
| 20260903004437 | 78 | 293 | 13.0 | 14.8 | 0.00 | 0.00 | 0.00 | 3 | 1010.3 |
| 20260903003435 | 78 | 238 | 4.3 | 13.9 | 0.00 | 0.00 | 0.00 | 4 | 1010.4 |
| 20260903002432 | 78 | 216 | 8.7 | 13.9 | 0.00 | 0.00 | 0.00 | 4 | 1010.1 |
| 20260903001436 | 78 | 254 | 7.8 | 12.2 | 0.00 | 0.00 | 0.00 | 4 | 1010.0 |
| 20260903000435 | 78 | 224 | 6.1 | 14.8 | 0.00 | 0.00 | 0.00 | 4 | 1010.1 |
| 20260902235433 | 77 | 233 | 4.3 | 10.4 | 0.00 | 0.00 | 0.00 | 4 | 1010.1 |
| 20260902234435 | 78 | 231 | 4.3 | 19.1 | 0.00 | 0.00 | 0.00 | 4 | 1010.0 |
| 20260902233435 | 77 | 231 | 4.3 | 10.4 | 0.00 | 0.00 | 0.00 | 4 | 1009.8 |
| 20260902232436 | 77 | 210 | 0.9 | 11.3 | 0.00 | 0.00 | 0.00 | 4 | 1009.7 |
| 20260902231435 | 76 | 292 | 2.6 | 9.6 | 0.00 | 0.00 | 0.00 | 4 | 1009.6 |
| 20260902230432 | 76 | 209 | 3.5 | 9.6 | 0.00 | 0.00 | 0.00 | 4 | 1009.5 |
| 20260902225435 | 75 | 353 | 4.3 | 4.3 | 0.00 | 0.00 | 0.00 | 4 | 1009.4 |
| 20260902224432 | 74 | 131 | 3.5 | 4.3 | 0.00 | 0.00 | 0.00 | 5 | 1009.4 |
| 20260902222436 | 73 | 71 | 1.7 | 3.5 | 0.00 | 0.00 | 0.00 | 5 | 1009.5 |
| 20260902221436 | 72 | 20 | 1.7 | 4.3 | 0.00 | 0.00 | 0.00 | 5 | 1009.7 |
| 20260902220435 | 71 | 50 | 1.7 | 2.6 | 0.00 | 0.00 | 0.00 | 5 | 1009.8 |
| 20260902215435 | 70 | 0 | 0.0 | 3.5 | 0.00 | 0.00 | 0.00 | 5 | 1009.8 |
| 20260902214432 | 70 | 125 | 0.9 | 2.6 | 0.00 | 0.00 | 0.00 | 5 | 1009.7 |
| 20260902213435 | 69 | 0 | 0.0 | 3.5 | 0.00 | 0.00 | 0.00 | 5 | 1009.6 |
| 20260902212435 | 68 | 129 | 1.7 | 3.5 | 0.00 | 0.00 | 0.00 | 5 | 1009.6 |
| 20260902211432 | 66 | 110 | 2.6 | 3.5 | 0.00 | 0.00 | 0.00 | 6 | 1009.5 |
| 20260902210432 | 66 | 104 | 0.9 | 2.6 | 0.00 | 0.00 | 0.00 | 6 | 1009.6 |
| 20260902205432 | 65 | 93 | 2.6 | 2.6 | 0.00 | 0.00 | 0.00 | 6 | 1009.6 |
| 20260902204436 | 64 | 93 | 0.9 | 1.7 | 0.00 | 0.00 | 0.00 | 6 | 1009.5 |
| 20260902203432 | 65 | 0 | 0.0 | 1.7 | 0.00 | 0.00 | 0.00 | 6 | 1009.5 |
| 20260902202433 | 65 | 0 | 0.0 | 3.5 | 0.00 | 0.00 | 0.00 | 6 | 1009.8 |
| 20260902201432 | 64 | 91 | 3.5 | 3.5 | 0.00 | 0.00 | 0.00 | 6 | 1009.9 |
| 20260902200432 | 65 | 87 | 3.5 | 7.0 | 0.00 | 0.00 | 0.00 | 6 | 1009.9 |
| 20260902195436 | 64 | 0 | 0.0 | 2.6 | 0.00 | 0.00 | 0.00 | 6 | 1009.7 |
| 20260902194432 | 65 | 209 | 0.9 | 1.7 | 0.00 | 0.00 | 0.00 | 6 | 1010.1 |
| 20260902193432 | 65 | 229 | 2.6 | 2.6 | 0.00 | 0.00 | 0.00 | 6 | 1010.2 |
| 20260902192433 | 65 | 230 | 1.7 | 1.7 | 0.00 | 0.00 | 0.00 | 6 | 1010.3 |
| 20260902191432 | 65 | 230 | 1.7 | 1.7 | 0.00 | 0.00 | 0.00 | 6 | 1010.7 |
| 20260902190432 | 65 | 0 | 0.0 | 0.0 | 0.00 | 0.00 | 0.00 | 6 | 1010.9 |
| 20260902185432 | 67 | 230 | 1.7 | 3.5 | 0.00 | 0.00 | 0.00 | 6 | 1011.0 |
| 20260902184432 | 68 | 233 | 1.7 | 3.5 | 0.00 | 0.00 | 0.00 | 5 | 1011.2 |
| 20260902183436 | 68 | 265 | 1.7 | 8.7 | 0.00 | 0.00 | 0.00 | 5 | 1011.5 |
| 20260902182433 | 67 | 132 | 1.7 | 2.6 | 0.00 | 0.00 | 0.00 | 5 | 1010.9 |
| 20260902180432 | 67 | 132 | 1.7 | 1.7 | 0.00 | 0.00 | 0.00 | 5 | 1010.3 |
| 20260902174432 | 68 | 132 | 0.9 | 4.3 | 0.00 | 0.00 | 0.00 | 5 | 1010.4 |
| 20260902173432 | 68 | 175 | 0.9 | 5.2 | 0.00 | 0.00 | 0.00 | 5 | 1010.6 |
| 20260902172432 | 68 | 233 | 2.6 | 3.5 | 0.00 | 0.00 | 0.00 | 5 | 1010.8 |
| 20260902171433 | 68 | 132 | 1.7 | 7.8 | 0.00 | 0.00 | 0.00 | 5 | 1011.0 |
| 20260902170432 | 68 | 235 | 3.5 | 7.8 | 0.00 | 0.00 | 0.00 | 5 | 1010.9 |
| 20260902165433 | 68 | 233 | 0.9 | 7.8 | 0.00 | 0.00 | 0.00 | 5 | 1011.2 |
| 20260902164432 | 68 | 258 | 1.7 | 6.1 | 0.00 | 0.00 | 0.00 | 5 | 1011.2 |
| 20260902163432 | 68 | 191 | 0.9 | 9.6 | 0.00 | 0.00 | 0.00 | 5 | 1011.5 |
| 20260902162432 | 67 | 235 | 4.3 | 4.3 | 0.00 | 0.00 | 0.00 | 5 | 1011.7 |
| 20260902161433 | 67 | 252 | 3.5 | 4.3 | 0.00 | 0.00 | 0.00 | 5 | 1011.7 |
| 20260902160432 | 67 | 238 | 2.6 | 2.6 | 0.00 | 0.00 | 0.00 | 6 | 1011.8 |
| 20260902155432 | 66 | 231 | 0.9 | 3.5 | 0.00 | 0.00 | 0.00 | 6 | 1012.0 |
| 20260902154432 | 65 | 231 | 3.5 | 4.3 | 0.00 | 0.00 | 0.00 | 6 | 1012.2 |
| 20260902153431 | 67 | 261 | 0.9 | 3.5 | 0.00 | 0.00 | 0.00 | 6 | 1012.3 |
| 20260902152432 | 67 | 265 | 1.7 | 4.3 | 0.00 | 0.00 | 0.00 | 5 | 1012.4 |
| 20260902151431 | 66 | 274 | 2.6 | 3.5 | 0.00 | 0.00 | 0.00 | 5 | 1012.5 |
| 20260902150431 | 66 | 294 | 1.7 | 2.6 | 0.00 | 0.00 | 0.00 | 6 | 1012.6 |
| 20260902145431 | 65 | 247 | 0.9 | 3.5 | 0.00 | 0.00 | 0.00 | 6 | 1012.9 |
| 20260902144431 | 65 | 274 | 0.9 | 1.7 | 0.00 | 0.00 | 0.00 | 6 | 1012.9 |
| 20260902143432 | 66 | 274 | 1.7 | 3.5 | 0.00 | 0.00 | 0.00 | 5 | 1013.0 |
| 20260902142432 | 65 | 274 | 1.7 | 2.6 | 0.00 | 0.00 | 0.00 | 6 | 1013.1 |
| 20260902141431 | 65 | 274 | 0.9 | 2.6 | 0.00 | 0.00 | 0.00 | 6 | 1013.3 |
| 20260902140433 | 65 | 274 | 0.9 | 2.6 | 0.00 | 0.00 | 0.00 | 6 | 1013.4 |
| 20260902135431 | 65 | 0 | 0.0 | 1.7 | 0.00 | 0.00 | 0.00 | 6 | 1013.5 |
| 20260902134432 | 65 | 274 | 0.9 | 1.7 | 0.00 | 0.00 | 0.00 | 6 | 1013.4 |
| 20260902133431 | 65 | 274 | 0.9 | 1.7 | 0.00 | 0.00 | 0.00 | 5 | 1013.5 |
| 20260902132431 | 65 | 0 | 0.0 | 1.7 | 0.00 | 0.00 | 0.00 | 6 | 1013.7 |
| 20260902131432 | 64 | 275 | 0.9 | 1.7 | 0.00 | 0.00 | 0.00 | 6 | 1014.0 |
| 20260902130432 | 65 | 0 | 0.0 | 0.0 | 0.00 | 0.00 | 0.00 | 5 | 1013.9 |
| 20260902125430 | 65 | 0 | 0.0 | 0.0 | 0.00 | 0.00 | 0.00 | 5 | 1014.0 |
| 20260902124429 | 65 | 0 | 0.0 | 0.0 | 0.00 | 0.00 | 0.00 | 5 | 1014.1 |
| 20260902123429 | 65 | 0 | 0.0 | 0.0 | 0.00 | 0.00 | 0.00 | 5 | 1014.3 |
| 20260902122429 | 66 | 0 | 0.0 | 0.0 | 0.00 | 0.00 | 0.00 | 5 | 1014.4 |
| 20260902121429 | 66 | 0 | 0.0 | 0.0 | 0.00 | 0.00 | 0.00 | 5 | 1014.4 |
| 20260902120429 | 66 | 0 | 0.0 | 0.0 | 0.00 | 0.00 | 0.00 | 5 | 1014.7 |
| 20260902115429 | 66 | 0 | 0.0 | 0.0 | 0.00 | 0.00 | 0.00 | 5 | 1014.6 |
| 20260902114430 | 66 | 0 | 0.0 | 0.9 | 0.00 | 0.00 | 0.00 | 5 | 1014.6 |
| 20260902113429 | 67 | 0 | 0.0 | 0.9 | 0.00 | 0.00 | 0.00 | 5 | 1014.7 |
| 20260902112433 | 67 | 0 | 0.0 | 1.7 | 0.00 | 0.00 | 0.00 | 5 | 1014.9 |
| 20260902111430 | 68 | 275 | 0.9 | 1.7 | 0.00 | 0.00 | 0.00 | 5 | 1014.9 |
| 20260902110429 | 69 | 275 | 0.9 | 2.6 | 0.00 | 0.00 | 0.00 | 5 | 1015.0 |
| 20260902105429 | 69 | 275 | 1.7 | 2.6 | 0.00 | 0.00 | 0.00 | 5 | 1015.0 |
| 20260902104430 | 69 | 275 | 0.9 | 2.6 | 0.00 | 0.00 | 0.00 | 5 | 1014.9 |
| 20260902103429 | 69 | 276 | 1.7 | 3.5 | 0.00 | 0.00 | 0.00 | 5 | 1014.9 |
| 20260902102429 | 69 | 0 | 0.0 | 1.7 | 0.00 | 0.00 | 0.00 | 5 | 1014.7 |